OSCAR 7 (AO-7) 1 07530U 74089B 25261.02130321 -.00000025 00000+0 13526-3 0 9998 2 07530 101.9986 266.3687 0011921 291.5181 81.5665 12.53691598326416 PHASE 3B (AO-10) 1 14129U 83058B 25256.06052969 .00000019 00000+0 00000+0 0 9996 2 14129 26.3356 266.5389 6068993 38.4794 352.1757 2.05870262289785 UOSAT 2 (UO-11) 1 14781U 84021B 25261.23266574 .00001512 00000+0 16375-3 0 9990 2 14781 97.7664 225.6836 0008154 16.2916 343.8563 14.89677715216621 LUSAT (LO-19) 1 20442U 90005G 25261.00367805 .00000123 00000+0 60821-4 0 9997 2 20442 98.9011 270.1116 0010531 285.8795 74.1227 14.33990477863382 EYESAT A (AO-27) 1 22825U 93061C 25261.05694872 .00000089 00000+0 51166-4 0 9994 2 22825 98.7271 323.0677 0008575 171.2118 188.9216 14.30829382668082 ITAMSAT (IO-26) 1 22826U 93061D 25261.11659680 .00000107 00000+0 57599-4 0 9997 2 22826 98.7218 323.0192 0009395 156.1109 204.0511 14.31245819668399 RADIO ROSTO (RS-15) 1 23439U 94085A 25261.28376400 -.00000057 00000+0 -42775-3 0 9994 2 23439 64.8204 22.9475 0147407 55.0012 306.4649 11.27581607265241 JAS-2 (FO-29) 1 24278U 96046B 25261.08361217 -.00000014 00000+0 18453-4 0 9992 2 24278 98.5580 141.6807 0350914 82.1838 281.8983 13.53253695436362 TECHSAT 1B (GO-32) 1 25397U 98043D 25260.93585498 .00000084 00000+0 56275-4 0 9996 2 25397 98.9822 242.2010 0000339 328.1364 31.9794 14.24339250412574 ISS (ZARYA) 1 25544U 98067A 25261.15495302 .00009099 00000+0 16508-3 0 9994 2 25544 51.6329 206.2777 0004340 352.6018 7.4906 15.50367586529586 PCSAT (NO-44) 1 26931U 01043C 25261.02766016 .00000157 00000+0 89954-4 0 9994 2 26931 67.0496 228.1185 0007061 275.0902 84.9394 14.31779501251486 SAUDISAT 1C (SO-50) 1 27607U 02058C 25261.04732480 .00001656 00000+0 21953-3 0 9991 2 27607 64.5510 250.3470 0066525 312.9469 46.6067 14.81894576224116 CUTE-1 (CO-55) 1 27844U 03031E 25260.59376165 .00000298 00000+0 14858-3 0 9996 2 27844 98.6792 267.5925 0008437 255.8478 104.1764 14.24068842152870 CUBESAT XI-IV (CO-57) 1 27848U 03031J 25260.94068674 .00000259 00000+0 13343-3 0 9997 2 27848 98.6823 267.8644 0008321 274.7393 85.2835 14.23393551152648 MOZHAYETS 4 (RS-22) 1 27939U 03042A 25261.25414442 .00001126 00000+0 18520-3 0 9999 2 27939 98.3369 73.2083 0012333 54.5754 68.1146 14.72591258175514 CUBESAT XI-V 1 28895U 05043F 25260.90698772 .00001560 00000+0 26030-3 0 9992 2 28895 98.2640 46.6104 0014171 353.6567 6.4458 14.71348428 61694 CUTE-1.7+APD II (CO-65) 1 32785U 08021C 25261.20785654 .00006053 00000+0 42570-3 0 9993 2 32785 97.7959 233.2374 0008196 224.4003 135.6567 15.05437870944219 SEEDS II (CO-66) 1 32791U 08021J 25260.91198254 .00013667 00000+0 61594-3 0 9997 2 32791 97.7367 243.4033 0004578 144.3240 215.8302 15.21161432945739 YUBILEINY (RS-30) 1 32953U 08025A 25261.24213566 .00000004 00000+0 -44756-4 0 9996 2 32953 82.5069 164.5938 0018649 182.8662 177.2314 12.43168109785900 KKS-1 (KISEKI) 1 33499U 09002H 25261.20819361 .00001485 00000+0 19435-3 0 9997 2 33499 98.1125 174.6199 0009640 90.7062 269.5255 14.81921373895898 SWISSCUBE 1 35932U 09051B 25260.65953610 .00001058 00000+0 22306-3 0 9996 2 35932 98.4166 158.7175 0006817 352.9138 7.1965 14.61562941849339 BEESAT-1 1 35933U 09051C 25260.67508150 .00000890 00000+0 19169-3 0 9990 2 35933 98.4097 158.9070 0005591 9.0787 351.0513 14.60942623849380 ITUPSAT1 1 35935U 09051E 25261.18608886 .00000871 00000+0 19282-3 0 9991 2 35935 98.4188 158.8821 0007948 12.2559 347.8832 14.59726656849041 XIWANG-1 (HOPE-1) 1 36122U 09072B 25261.24207315 -.00000039 00000+0 13140-4 0 9997 2 36122 100.3596 214.9325 0007903 131.4126 228.7667 13.16428177757224 O/OREOS (USA 219) 1 37224U 10062C 25260.95730469 .00002350 00000+0 23762-3 0 9997 2 37224 71.9733 336.2366 0016311 231.1591 128.8123 14.91945302 76010 JUGNU 1 37839U 11058B 25260.06543847 .00000440 00000+0 90541-4 0 9997 2 37839 19.9599 167.5874 0018490 300.1258 87.2353 14.13637783720339 SRMSAT 1 37841U 11058D 25261.20087223 .00000420 00000+0 84198-4 0 9997 2 37841 19.9716 265.6382 0011972 91.7497 348.1531 14.11465140719343 STRAND-1 1 39090U 13009E 25261.02204443 .00000293 00000+0 11346-3 0 9990 2 39090 98.3854 83.1067 0008104 331.6886 28.3859 14.36889799657976 ZACUBE-1 (TSHEPISOSAT) 1 39417U 13066B 25261.11219155 .00005315 00000+0 45087-3 0 9991 2 39417 97.7907 217.6974 0045813 76.5184 284.1137 14.97545238639959 GOMX-1 1 39430U 13066Q 25261.30892280 .00001896 00000+0 29888-3 0 9994 2 39430 97.6719 113.7640 0130453 229.5721 129.4048 14.68009037630001 CUBEBUG-2 (LO-74) 1 39440U 13066AA 25260.85489584 .00003484 00000+0 34917-3 0 9997 2 39440 97.8554 204.7974 0060151 207.5005 152.3026 14.90685871636378 FUNCUBE-1 (AO-73) 1 39444U 13066AE 25260.88072824 .00007931 00000+0 57187-3 0 9994 2 39444 97.7927 223.3117 0043086 50.4280 310.0738 15.03665259638658 UWE-3 1 39446U 13066AG 25260.84804919 .00003286 00000+0 30768-3 0 9995 2 39446 97.8316 211.3064 0053317 144.5798 215.8982 14.93691982636873 UNISAT-6 1 40012U 14033C 25260.97990129 .00003581 00000+0 41015-3 0 9999 2 40012 97.7547 54.4821 0046189 244.2499 115.3946 14.85804116605709 DUCHIFAT-1 1 40021U 14033M 25261.01327858 .00024704 00000+0 77727-3 0 9997 2 40021 98.0927 284.3756 0006202 341.3826 18.7187 15.32933989613684 QB50P1 1 40025U 14033R 25261.18870999 .00009007 00000+0 52725-3 0 9998 2 40025 98.0919 249.5282 0012172 77.5653 282.6937 15.12024290611839 LILACSAT-2 1 40908U 15049K 25261.32573846 .00011944 00000+0 28902-3 0 9996 2 40908 97.5029 284.2433 0009958 147.6891 212.4967 15.41230123553734 FOX-1A (AO-85) 1 40967U 15058D 25260.78485052 .00005349 00000+0 48228-3 0 9996 2 40967 64.7764 44.2492 0146557 161.7090 198.9373 14.88701697 72986 CAS-2T & KS-1Q 1 41847U 16066G 25261.04379097 .00001187 00000+0 17844-3 0 9991 2 41847 98.4127 334.6116 0344299 234.3786 122.4884 14.43721261465516 ZHUHAI-1 02 (CAS-4B) 1 42759U 17034B 25260.96500400 .00288969 00000+0 11411-2 0 9992 2 42759 42.9983 76.4091 0024294 281.8728 77.9420 15.84799142458396 ZHUHAI-1 01 (CAS-4A) 1 42761U 17034D 25260.93199135 .00275271 35246-4 93828-3 0 9991 2 42761 43.0033 71.9739 0024656 291.1777 68.6463 15.88516116458426 RADFXSAT (FOX-1B) 1 43017U 17073E 25261.08819675 .00007323 00000+0 36442-3 0 9999 2 43017 97.5092 129.3439 0167813 183.0702 176.9512 15.06342893424335 DIWATA-2B 1 43678U 18084H 25261.28246221 .00001620 00000+0 13978-3 0 9991 2 43678 98.1078 81.3183 0008289 317.4459 42.6120 14.98767208375469 ES'HAIL 2 1 43700U 18090A 25261.15890054 .00000124 00000+0 00000+0 0 9995 2 43700 0.0154 212.2398 0001450 6.9353 221.1847 1.00272879 24949 FOX-1CLIFF (AO-95) 1 43770U 18099N 25261.10548069 .00009847 00000+0 47302-3 0 9993 2 43770 97.4821 318.1391 0009620 214.3954 145.6659 15.19001642371809 ITASAT 1 43786U 18099AE 25261.10579187 .00006560 00000+0 36262-3 0 9997 2 43786 97.4472 313.2514 0013267 212.7965 147.2445 15.14150961371666 JY1SAT (JO-97) 1 43803U 18099AX 25261.11869985 .00012666 00000+0 53936-3 0 9997 2 43803 97.4566 319.3874 0008307 145.8974 214.2798 15.23085158372067 UWE-4 1 43880U 18111E 25260.98177354 .00017110 00000+0 60973-3 0 9991 2 43880 97.5819 175.5265 0009720 204.2258 155.8525 15.28947168368959 DUCHIFAT-3 1 44854U 19089C 25260.85312554 .00084777 00000+0 11137-2 0 9997 2 44854 36.9371 73.3157 0006614 18.7923 341.3080 15.57311763318593 TIANYAN 01 1 44881U 19093C 25261.24829133 .00000885 00000+0 10784-3 0 9998 2 44881 97.7850 334.7665 0012330 259.9159 100.0666 14.85794580311023 RS-44 & BREEZE-KM R/B 1 44909U 19096E 25261.17297594 .00000024 00000+0 45476-4 0 9996 2 44909 82.5249 160.4644 0218504 60.4758 301.7936 12.79743559267559 SALSAT 1 46495U 20068K 25260.91735551 .00007439 00000+0 30842-3 0 9997 2 46495 97.8707 243.7322 0011516 163.1562 197.0059 15.24146179273800 LEDSAT 1 49069U 21073D 25260.83055567 .00222157 00000+0 10424-2 0 9996 2 49069 97.3765 347.7461 0001590 68.3795 291.7643 15.82594972227153 XW-3 (CAS-9) 1 50466U 21131B 25261.31412387 .00000461 00000+0 15747-3 0 9991 2 50466 98.5082 350.1687 0004213 178.8350 181.2849 14.40926087195950 GREENCUBE (IO-117) 1 53109U 22080E 25261.28745958 -.00000003 00000+0 00000+0 0 9996 2 53109 70.1544 32.7830 0008569 347.6842 12.3608 6.42583654 74594 STRATOSAT-TK 1 (RS52S) 1 57167U 23091B 25261.22944433 .00056086 00000+0 10295-2 0 9991 2 57167 97.5417 328.5045 0005469 294.3660 65.7019 15.49065676123544 UMKA 1 (RS40S) 1 57172U 23091G 25261.27407620 .00005082 00000+0 26408-3 0 9998 2 57172 97.5487 316.1467 0013481 352.7178 7.3857 15.16461089122738 CUBESX-HSE 3 (RS42S) 1 57178U 23091N 25261.26979121 .00009173 00000+0 39624-3 0 9992 2 57178 97.5516 319.4286 0011895 336.9315 23.1385 15.22660353122921 MONITOR-3 (RS58S) 1 57180U 23091Q 25261.21627779 .00008054 00000+0 36822-3 0 9993 2 57180 97.5512 318.3616 0012694 340.6578 19.4174 15.20748594122854 MONITOR-4 (RS57S) 1 57182U 23091S 25261.20926871 .00008203 00000+0 37436-3 0 9997 2 57182 97.5506 318.3134 0012725 341.3264 18.7503 15.20804768122853 MONITOR-2 (RS39S) 1 57184U 23091U 25261.21272250 .00004100 00000+0 22095-3 0 9992 2 57184 97.5513 316.2337 0011397 344.5041 15.5840 15.15309419122718 SVYATOBOR 1 (RS60S) 1 57187U 23091X 25261.26511867 .00007396 00000+0 34188-3 0 9996 2 57187 97.5516 319.0885 0009678 332.7595 27.3131 15.20430099122905 VIZARD-METEO (RS38S) 1 57189U 23091Z 25261.21876715 .00010939 00000+0 43138-3 0 9991 2 57189 97.5504 321.6661 0007718 322.1664 37.9030 15.25719424123079 NANOZOND 1 (RS49S) 1 57190U 23091AA 25261.22544013 .00033481 00000+0 80247-3 0 9996 2 57190 97.5452 327.6402 0004369 295.9209 64.1586 15.41334038123488 POLYTECH-UNIVERSE 3 (R*) 1 57191U 23091AB 25261.27144707 .00004478 00000+0 23970-3 0 9992 2 57191 97.5484 315.8170 0016473 359.4611 0.6601 15.15440119122714 UTMN 2 (RS27S) 1 57203U 23091AP 25261.25331071 .00010195 00000+0 42767-3 0 9994 2 57203 97.5505 320.6954 0008397 325.2652 34.8035 15.23655297123016 ARCCUBE 1 (RS25S) 1 57205U 23091AR 25261.26701159 .00085748 00000+0 11473-2 0 9990 2 57205 97.5349 331.6205 0004114 261.6131 98.4658 15.57725233123778 KUZGTU 1 (RS47S) 1 57217U 23091AV 25261.27364023 .00008789 00000+0 38782-3 0 9992 2 57217 97.5491 318.8510 0012046 339.3529 20.7219 15.21946336122907 SONATE-2 1 59112U 24043Q 25260.93265286 .00019787 00000+0 50986-3 0 9999 2 59112 97.5250 34.4227 0011016 115.5039 244.7347 15.39183701 85757 MESAT1 1 60209U 24125G 25261.04741816 .00020418 00000+0 51447-3 0 9996 2 60209 97.2674 111.7205 0018514 132.2063 228.0759 15.39740317 67395 OOV-CUBE (TUBSAT-30) 1 60240U 24128F 25260.95591744 .00002794 00000+0 22761-3 0 9990 2 60240 61.9944 93.5932 0058013 76.3708 284.3834 15.00806726 65228 COLIBRI-S (RS67S) 1 61746U 24199M 25261.27759204 .00013324 00000+0 39368-3 0 9995 2 61746 97.3404 129.4059 0011394 173.0638 187.0765 15.35004738 95520 HORS 3 (RS81S) 1 61753U 24199U 25261.22430353 .00016390 00000+0 45285-3 0 9990 2 61753 97.3374 129.6533 0009552 178.4037 181.7240 15.37078405 95543 HORS 4 (RS82S) 1 61754U 24199V 25261.23573269 .00019328 00000+0 51550-3 0 9992 2 61754 97.3367 129.9268 0009852 176.7876 183.3435 15.38135627 95566 HORIZON (RS59S) 1 61757U 24199Y 25261.22485688 .00028731 00000+0 64916-3 0 9999 2 61757 97.3384 131.1039 0010189 161.6090 198.5528 15.43092907 95633 SIT-2086 1 61764U 24199AF 25261.26649057 .00014498 00000+0 38516-3 0 9995 2 61764 97.3375 130.3588 0008408 172.0861 188.0519 15.38333239 92433 MORDOVIA-IOT (RS50S) 1 61765U 24199AG 25261.22124828 .00046637 00000+0 84694-3 0 9994 2 61765 97.3348 132.4167 0009393 152.4724 207.7027 15.49383094 92578 RUZAEVKA 390 (RS44S) 1 61766U 24199AH 25261.21971702 .00038438 00000+0 75961-3 0 9992 2 61766 97.3349 131.9601 0009611 153.9679 206.2057 15.46986224 92540 HYPERVIEW 1G (RS66S) 1 61772U 24199AP 25261.23668620 .00024450 00000+0 61708-3 0 9996 2 61772 97.3366 130.0782 0012228 180.5437 179.5798 15.39757930 92425 ALTAIR (RS65S) 1 61779U 24199AW 25261.21771165 .00007586 00000+0 25960-3 0 9991 2 61779 97.3400 127.9155 0014435 192.7037 167.3842 15.30426293 95427 ASRTU-1 (AO-123) 1 61781U 24199AY 25261.23599133 .00007130 00000+0 24970-3 0 9994 2 61781 97.3389 127.7107 0014806 193.7988 166.2850 15.29691184 92266 TUSUR GO (RS78S) 1 61782U 24199AZ 25261.23875583 .00031881 00000+0 74628-3 0 9996 2 61782 97.3357 130.3653 0012231 178.0010 182.1288 15.41986417 92442 SAMSAT-IONOSPHERE (RS7*) 1 61784U 24199BB 25261.22611345 .00018636 00000+0 51751-3 0 9996 2 61784 97.3375 129.3601 0013395 185.3689 174.7414 15.36849114 95526 RTU MIREA 1 (RS51S) 1 61785U 24199BC 25261.22785425 .00020016 00000+0 54375-3 0 9998 2 61785 97.3373 129.5039 0013209 183.0219 177.0948 15.37520350 92388 HADES-R 1 62690U 25009CK 25261.16204992 .00048860 00000+0 13396-2 0 9997 2 62690 97.4022 342.0360 0002871 125.9865 234.1646 15.37129071 37553 TEVEL2-4 1 63213U 25052D 25260.69262066 .00012716 00000+0 54417-3 0 9991 2 63213 97.4170 153.3640 0004014 32.8426 327.3059 15.22939248 28476 TEVEL2-5 1 63214U 25052E 25261.15495539 .00012416 00000+0 53181-3 0 9991 2 63214 97.4177 153.8163 0003890 33.3875 326.7606 15.22914036 28541 TEVEL2-6 1 63215U 25052F 25261.15974015 .00012592 00000+0 53992-3 0 9998 2 63215 97.4174 153.8130 0004013 33.5169 326.6321 15.22873256 28540 TEVEL2-1 1 63217U 25052H 25260.66047930 .00013099 00000+0 56598-3 0 9990 2 63217 97.4147 153.1980 0004594 41.6589 318.4997 15.22601575 28460 TEVEL2-3 1 63218U 25052J 25260.92339789 .00013102 00000+0 56583-3 0 9995 2 63218 97.4150 153.4596 0004661 41.6743 318.4848 15.22616878 28500 TEVEL2-2 1 63219U 25052K 25260.66119544 .00013027 00000+0 56294-3 0 9997 2 63219 97.4148 153.1985 0004637 41.9271 318.2320 15.22598137 28464 TEVEL2-9 1 63237U 25052AD 25260.67701624 .00011591 00000+0 52042-3 0 9995 2 63237 97.4213 153.0292 0009108 39.3529 320.8367 15.21292729 28447 TEVEL2-7 1 63238U 25052AE 25260.68415160 .00011377 00000+0 51221-3 0 9994 2 63238 97.4216 153.0241 0009215 39.4426 320.7479 15.21202537 28442 TEVEL2-8 1 63239U 25052AF 25260.68820861 .00011463 00000+0 51649-3 0 9993 2 63239 97.4215 153.0166 0009212 39.5536 320.6371 15.21173146 28441 HADES-ICM 1 63492U 25052BN 25261.14445564 .00030576 00000+0 11143-2 0 9999 2 63492 97.4161 154.4242 0012308 36.2243 323.9827 15.28059344 28588 INNOSAT 16 (RS92S7) 1 64878U 25155C 25260.89960486 .00004246 00000+0 19083-3 0 9995 2 64878 97.4179 225.3289 0013366 67.1786 293.0861 15.21598920 39213 GEOSCAN 6 (RS92S6) 1 64879U 25155D 25261.13201007 .00009919 00000+0 42675-3 0 9996 2 64879 97.4189 225.6412 0011331 65.6370 294.6048 15.22770476 39255 GEOSCAN 1 (RS92S1) 1 64880U 25155E 25260.86776567 .00010213 00000+0 43842-3 0 9991 2 64880 97.4192 225.3861 0011344 67.2304 293.0130 15.22838335 39215 239ALFEROV (RS61S) 1 64881U 25155F 25261.12445243 .00012743 00000+0 54161-3 0 9992 2 64881 97.4204 225.6635 0011264 67.3280 292.9147 15.23120790 39257 GEOSCAN 2 (RS92S2) 1 64890U 25155Q 25261.24744584 .00010647 00000+0 45159-3 0 9993 2 64890 97.4190 225.7885 0010198 56.5493 303.6718 15.23248248 39275 GEOSCAN 5 (RS92S5) 1 64891U 25155R 25260.84729747 .00012526 00000+0 52635-3 0 9998 2 64891 97.4199 225.4087 0010006 74.2576 285.9764 15.23522917 39218 GEOSCAN 4 (RS92S4) 1 64892U 25155S 25260.84694716 .00012303 00000+0 51687-3 0 9995 2 64892 97.4200 225.4106 0010081 74.8073 285.4278 15.23535239 39211 GEOSCAN 3 (RS92S3) 1 64893U 25155T 25261.17093966 .00014240 00000+0 59382-3 0 9995 2 64893 97.4199 225.7397 0010065 76.2141 284.0215 15.23750405 39263 INNOSAT 3 (RS92S0) 1 64894U 25155U 25260.90152401 .00019606 00000+0 80475-3 0 9994 2 64894 97.4195 225.4891 0010435 80.9179 279.3239 15.24210671 39226